JST1824 YSSY-YMML

Flight info

Callsign JST1824
Flight time 1h 14m
Altitude 32000
Route WOL H65 LEECE Q29 ML
Aircraft A320/M-SDE3FGHIRWY/LB1

Departure

Time 2026-05-04 10:51
Airport Sydney Kingsford Smith International Airport (YSSY)

Arrival

Time 2026-05-04 12:06
Airport Melbourne Airport (YMML)
Time Latitude Longitude Altitude Speed Heading
2026-05-04 10:13 -33.93600 151.18002 31 ft 0 kts 280°
2026-05-04 10:32 -33.93611 151.18067 28 ft 0 kts 187°
2026-05-04 10:33 -33.93601 151.18064 30 ft 3 kts 153°
2026-05-04 10:33 -33.93585 151.18058 28 ft 3 kts 183°
2026-05-04 10:33 -33.93576 151.18059 29 ft 0 kts 186°
2026-05-04 10:37 -33.93579 151.18058 30 ft 2 kts 186°
2026-05-04 10:39 -33.93990 151.17804 23 ft 17 kts 168°
2026-05-04 10:39 -33.94119 151.17836 23 ft 21 kts 168°
2026-05-04 10:39 -33.94277 151.17878 24 ft 25 kts 168°
2026-05-04 10:40 -33.94449 151.17912 26 ft 21 kts 193°
2026-05-04 10:40 -33.94583 151.17899 24 ft 20 kts 167°
2026-05-04 10:40 -33.94724 151.17936 22 ft 22 kts 167°
2026-05-04 10:40 -33.94883 151.17976 21 ft 24 kts 168°
2026-05-04 10:41 -33.95043 151.18019 27 ft 21 kts 168°
2026-05-04 10:41 -33.95098 151.18131 25 ft 19 kts 79°
2026-05-04 10:41 -33.95068 151.18299 25 ft 21 kts 78°
2026-05-04 10:41 -33.95052 151.18392 26 ft 0 kts 78°
2026-05-04 10:44 -33.95377 151.18741 25 ft 28 kts 169°
2026-05-04 10:45 -33.95548 151.18782 23 ft 21 kts 168°
2026-05-04 10:45 -33.95692 151.18819 26 ft 21 kts 167°
2026-05-04 10:45 -33.95841 151.18859 26 ft 22 kts 168°
2026-05-04 10:45 -33.95997 151.18898 27 ft 24 kts 168°
2026-05-04 10:46 -33.96170 151.18943 27 ft 27 kts 168°
2026-05-04 10:46 -33.96357 151.18992 26 ft 29 kts 168°
2026-05-04 10:46 -33.96569 151.19047 19 ft 33 kts 168°
2026-05-04 10:46 -33.96732 151.19079 19 ft 21 kts 185°
2026-05-04 10:47 -33.96881 151.19084 19 ft 22 kts 167°
2026-05-04 10:47 -33.97036 151.19124 20 ft 23 kts 168°
2026-05-04 10:47 -33.97131 151.19190 21 ft 16 kts 101°
2026-05-04 10:47 -33.97120 151.19274 22 ft 0 kts 78°
2026-05-04 10:49 -33.97119 151.19282 23 ft 3 kts 78°
2026-05-04 10:50 -33.97112 151.19317 21 ft 6 kts 73°
2026-05-04 10:51 -33.93447 151.18966 1218 ft 144 kts 31°
2026-05-04 10:52 -33.92751 151.19880 1459 ft 165 kts 63°
2026-05-04 10:52 -33.92664 151.21332 1733 ft 190 kts 104°
2026-05-04 10:52 -33.93254 151.22824 2154 ft 202 kts 113°
2026-05-04 10:54 -33.93491 151.36236 4950 ft 283 kts 83°
2026-05-04 10:54 -33.93429 151.38600 5020 ft 283 kts 83°
2026-05-04 10:56 -33.95350 151.54994 8588 ft 314 kts 135°
2026-05-04 10:56 -33.97089 151.56599 9325 ft 318 kts 152°
2026-05-04 10:56 -33.99149 151.57552 10038 ft 318 kts 171°
2026-05-04 10:57 -34.01371 151.57733 10438 ft 328 kts 190°
2026-05-04 10:57 -34.03615 151.57019 10588 ft 341 kts 210°
2026-05-04 10:57 -34.05608 151.55398 10716 ft 353 kts 229°
2026-05-04 10:57 -34.07224 151.53102 10833 ft 368 kts 237°
2026-05-04 10:58 -34.08857 151.50621 11033 ft 384 kts 236°
2026-05-04 10:58 -34.10540 151.48079 11506 ft 391 kts 236°
2026-05-04 10:58 -34.12247 151.45509 12061 ft 395 kts 236°
2026-05-04 10:58 -34.13974 151.42912 12640 ft 398 kts 236°
2026-05-04 10:59 -34.15715 151.40294 13214 ft 402 kts 236°
2026-05-04 10:59 -34.17470 151.37644 13805 ft 405 kts 236°
2026-05-04 10:59 -34.19235 151.34971 14316 ft 409 kts 236°
2026-05-04 10:59 -34.21017 151.32266 14876 ft 411 kts 236°
2026-05-04 11:00 -34.22804 151.29552 15412 ft 414 kts 236°
2026-05-04 11:01 -34.35574 151.10102 18856 ft 432 kts 237°
2026-05-04 11:02 -34.37447 151.07247 19284 ft 434 kts 237°
2026-05-04 11:02 -34.39323 151.04384 19708 ft 436 kts 237°
2026-05-04 11:05 -34.65582 150.62896 25089 ft 441 kts 241°
2026-05-04 11:06 -34.67380 150.59886 25515 ft 440 kts 241°
2026-05-04 11:06 -34.69174 150.56892 25917 ft 438 kts 241°
2026-05-04 11:06 -34.70968 150.53900 26349 ft 437 kts 241°
2026-05-04 11:06 -34.72757 150.50921 26798 ft 436 kts 242°
2026-05-04 11:08 -34.85142 150.30238 29813 ft 429 kts 242°
2026-05-04 11:10 -34.97207 150.09925 32108 ft 426 kts 243°
2026-05-04 11:12 -35.09703 149.88779 32094 ft 441 kts 243°
2026-05-04 11:12 -35.11498 149.85741 32095 ft 440 kts 243°
2026-05-04 11:12 -35.15070 149.79668 32110 ft 440 kts 243°
2026-05-04 11:13 -35.18636 149.73586 32100 ft 440 kts 243°
2026-05-04 11:13 -35.22210 149.67494 32104 ft 440 kts 243°
2026-05-04 11:14 -35.22790 149.66505 32104 ft 440 kts 243°
2026-05-04 11:16 -35.39977 149.37032 32122 ft 440 kts 243°
2026-05-04 11:16 -35.43522 149.30922 32135 ft 440 kts 244°
2026-05-04 11:17 -35.47065 149.24792 32122 ft 440 kts 244°
2026-05-04 11:19 -35.61233 149.00210 32135 ft 441 kts 244°
2026-05-04 11:19 -35.64775 148.94043 32131 ft 441 kts 244°
2026-05-04 11:20 -35.68309 148.87872 32123 ft 441 kts 244°
2026-05-04 11:20 -35.71834 148.81705 32140 ft 441 kts 244°
2026-05-04 11:22 -35.85899 148.57013 32141 ft 441 kts 244°
2026-05-04 11:23 -35.89410 148.50801 32110 ft 442 kts 244°
2026-05-04 11:25 -36.01689 148.28973 32108 ft 443 kts 243°
2026-05-04 11:25 -36.05192 148.22711 32101 ft 443 kts 243°
2026-05-04 11:27 -36.20950 147.94512 32108 ft 442 kts 244°
2026-05-04 11:28 -36.24446 147.88243 32125 ft 442 kts 244°
2026-05-04 11:28 -36.27926 147.81963 32123 ft 442 kts 244°
2026-05-04 11:29 -36.31403 147.75693 32107 ft 442 kts 244°
2026-05-04 11:29 -36.34882 147.69413 32096 ft 442 kts 244°
2026-05-04 11:33 -36.58566 147.26261 32084 ft 443 kts 244°
2026-05-04 11:33 -36.62017 147.19914 32079 ft 443 kts 244°
2026-05-04 11:34 -36.65472 147.13560 32080 ft 443 kts 244°
2026-05-04 11:34 -36.68925 147.07202 32111 ft 443 kts 245°
2026-05-04 11:35 -36.72364 147.00844 32097 ft 442 kts 245°
2026-05-04 11:35 -36.75775 146.94529 32084 ft 442 kts 245°
2026-05-04 11:36 -36.79208 146.88172 32082 ft 442 kts 245°
2026-05-04 11:36 -36.82661 146.81762 32086 ft 442 kts 245°
2026-05-04 11:37 -36.86085 146.75393 32072 ft 442 kts 245°
2026-05-04 11:37 -36.89482 146.69056 32071 ft 442 kts 245°
2026-05-04 11:38 -36.92895 146.62674 32082 ft 442 kts 245°
2026-05-04 11:38 -36.96307 146.56280 32066 ft 443 kts 245°
2026-05-04 11:39 -36.99732 146.49872 32065 ft 443 kts 245°
2026-05-04 11:40 -37.09075 146.31212 32052 ft 365 kts 264°
2026-05-04 11:41 -37.09396 146.28184 32047 ft 339 kts 277°
2026-05-04 11:41 -37.09132 146.25350 32049 ft 320 kts 289°
2026-05-04 11:41 -37.08383 146.22777 32050 ft 312 kts 300°
2026-05-04 11:42 -37.05667 146.18641 32053 ft 311 kts 320°
2026-05-04 11:42 -37.03811 146.17222 32054 ft 316 kts 331°
2026-05-04 11:42 -37.01704 146.16357 32055 ft 324 kts 342°
2026-05-04 11:42 -36.99427 146.16135 32055 ft 335 kts 355°
2026-05-04 11:43 -36.97084 146.16633 32044 ft 349 kts
2026-05-04 11:43 -36.94819 146.17898 32060 ft 367 kts 21°
2026-05-04 11:43 -36.92793 146.19974 32056 ft 388 kts 38°
2026-05-04 11:43 -36.91243 146.22863 32065 ft 420 kts 58°
2026-05-04 11:44 -36.90493 146.26509 32067 ft 451 kts 81°
2026-05-04 11:44 -36.90835 146.30490 32067 ft 474 kts 104°
2026-05-04 11:44 -36.92299 146.34236 32062 ft 487 kts 127°
2026-05-04 11:44 -36.94714 146.37218 32055 ft 492 kts 150°
2026-05-04 11:45 -36.97776 146.39039 32057 ft 487 kts 172°
2026-05-04 11:45 -37.01096 146.39482 32057 ft 477 kts 192°
2026-05-04 11:45 -37.04354 146.38849 32040 ft 470 kts 206°
2026-05-04 11:45 -37.07235 146.37119 32065 ft 454 kts 226°
2026-05-04 11:46 -37.09416 146.34443 32047 ft 440 kts 242°
2026-05-04 11:46 -37.12347 146.27838 32023 ft 432 kts 253°
2026-05-04 11:46 -37.13623 146.24421 31538 ft 434 kts 252°
2026-05-04 11:47 -37.15007 146.21046 30963 ft 437 kts 249°
2026-05-04 11:47 -37.16537 146.17764 30368 ft 436 kts 247°
2026-05-04 11:47 -37.18184 146.14571 29732 ft 435 kts 244°
2026-05-04 11:47 -37.19888 146.11453 29027 ft 432 kts 243°
2026-05-04 11:48 -37.21603 146.08370 28349 ft 429 kts 242°
2026-05-04 11:48 -37.23300 146.05297 27672 ft 428 kts 242°
2026-05-04 11:48 -37.24973 146.02207 27044 ft 427 kts 242°
2026-05-04 11:48 -37.26619 145.99105 26405 ft 427 kts 242°
2026-05-04 11:49 -37.28249 145.95987 25780 ft 428 kts 242°
2026-05-04 11:49 -37.29877 145.92852 25172 ft 427 kts 242°
2026-05-04 11:49 -37.31489 145.89754 24553 ft 417 kts 240°
2026-05-04 11:49 -37.33051 145.86774 23965 ft 400 kts 240°
2026-05-04 11:50 -37.34559 145.83913 23339 ft 386 kts 241°
2026-05-04 11:50 -37.36026 145.81120 22649 ft 382 kts 240°
2026-05-04 11:50 -37.37491 145.78313 21994 ft 385 kts 241°
2026-05-04 11:50 -37.38960 145.75492 21331 ft 385 kts 240°
2026-05-04 11:51 -37.40434 145.72664 20673 ft 386 kts 240°
2026-05-04 11:51 -37.41889 145.69879 20051 ft 386 kts 240°
2026-05-04 11:51 -37.43364 145.67054 19428 ft 386 kts 240°
2026-05-04 11:51 -37.44836 145.64232 18775 ft 386 kts 239°
2026-05-04 11:52 -37.46349 145.61432 18109 ft 386 kts 238°
2026-05-04 11:52 -37.47898 145.58731 17366 ft 374 kts 237°
2026-05-04 11:52 -37.49426 145.56154 16671 ft 360 kts 236°
2026-05-04 11:52 -37.50907 145.53681 16004 ft 347 kts 236°
2026-05-04 11:53 -37.52330 145.51289 15342 ft 336 kts 236°
2026-05-04 11:53 -37.53702 145.48960 14708 ft 326 kts 237°
2026-05-04 11:53 -37.55031 145.46689 14075 ft 318 kts 237°
2026-05-04 11:53 -37.56322 145.44467 13420 ft 311 kts 238°
2026-05-04 11:55 -37.64513 145.30278 9698 ft 276 kts 238°
2026-05-04 11:55 -37.65645 145.28308 9221 ft 278 kts 238°
2026-05-04 11:56 -37.66768 145.26352 8784 ft 280 kts 237°
2026-05-04 11:56 -37.67930 145.24332 8346 ft 281 kts 237°
2026-05-04 11:56 -37.69062 145.22365 7917 ft 281 kts 238°
2026-05-04 11:56 -37.70197 145.20397 7525 ft 271 kts 238°
2026-05-04 11:57 -37.71279 145.18524 7169 ft 258 kts 238°
2026-05-04 11:57 -37.72328 145.16705 6820 ft 254 kts 238°
2026-05-04 11:57 -37.73360 145.14908 6477 ft 252 kts 238°
2026-05-04 11:57 -37.74384 145.13119 6125 ft 250 kts 238°
2026-05-04 11:58 -37.75385 145.11376 5760 ft 239 kts 238°
2026-05-04 11:58 -37.76343 145.09708 5400 ft 230 kts 238°
2026-05-04 11:58 -37.77268 145.08094 5047 ft 224 kts 238°
2026-05-04 11:58 -37.78173 145.06511 4697 ft 223 kts 238°
2026-05-04 11:59 -37.79067 145.04952 4337 ft 221 kts 238°
2026-05-04 11:59 -37.79981 145.03355 4038 ft 220 kts 239°
2026-05-04 11:59 -37.80857 145.01804 3858 ft 219 kts 243°
2026-05-04 11:59 -37.81491 145.00070 3598 ft 212 kts 256°
2026-05-04 12:00 -37.81814 144.98303 3343 ft 207 kts 259°
2026-05-04 12:00 -37.82123 144.96530 3103 ft 204 kts 260°
2026-05-04 12:00 -37.82423 144.94825 2997 ft 194 kts 260°
2026-05-04 12:00 -37.82682 144.93188 2887 ft 188 kts 263°
2026-05-04 12:01 -37.82885 144.91585 2758 ft 182 kts 263°
2026-05-04 12:01 -37.83070 144.90044 2635 ft 172 kts 264°
2026-05-04 12:02 -37.78385 144.85930 2300 ft 147 kts 341°
2026-05-04 12:03 -37.77395 144.85756 2090 ft 143 kts 340°
2026-05-04 12:03 -37.76420 144.85573 1899 ft 141 kts 341°
2026-05-04 12:03 -37.75455 144.85392 1711 ft 138 kts 340°
2026-05-04 12:03 -37.74500 144.85212 1506 ft 139 kts 342°
2026-05-04 12:04 -37.73553 144.85034 1315 ft 136 kts 346°
2026-05-04 12:04 -37.72603 144.84855 1142 ft 139 kts 350°
2026-05-04 12:04 -37.71647 144.84675 962 ft 138 kts 352°
2026-05-04 12:04 -37.70700 144.84498 783 ft 138 kts 351°
2026-05-04 12:05 -37.69757 144.84325 634 ft 140 kts 351°
2026-05-04 12:05 -37.68822 144.84152 455 ft 137 kts 351°
2026-05-04 12:05 -37.67910 144.83984 357 ft 122 kts 352°
2026-05-04 12:05 -37.67241 144.83855 378 ft 74 kts 352°
2026-05-04 12:06 -37.66893 144.83791 391 ft 36 kts 352°
2026-05-04 12:06 -37.66654 144.83740 393 ft 29 kts 351°
2026-05-04 12:06 -37.66515 144.83837 403 ft 21 kts 75°
2026-05-04 12:06 -37.66514 144.83947 404 ft 10 kts 95°
2026-05-04 12:07 -37.66521 144.84065 404 ft 12 kts 97°
2026-05-04 12:07 -37.66533 144.84101 403 ft 6 kts 120°
2026-05-04 12:07 -37.66570 144.84149 400 ft 10 kts 146°
2026-05-04 12:07 -37.66653 144.84166 398 ft 15 kts 171°
2026-05-04 12:08 -37.66771 144.84189 393 ft 20 kts 172°
2026-05-04 12:08 -37.66899 144.84213 388 ft 19 kts 171°
2026-05-04 12:08 -37.67026 144.84236 385 ft 19 kts 171°
2026-05-04 12:08 -37.67165 144.84261 382 ft 22 kts 172°
2026-05-04 12:09 -37.67265 144.84281 380 ft 15 kts 171°
2026-05-04 12:09 -37.67382 144.84303 378 ft 19 kts 172°
2026-05-04 12:09 -37.67473 144.84322 376 ft 9 kts 157°
2026-05-04 12:09 -37.67477 144.84390 377 ft 9 kts 73°
2026-05-04 12:10 -37.67467 144.84466 378 ft 9 kts 81°
2026-05-04 12:10 -37.67457 144.84551 379 ft 10 kts 81°
2026-05-04 12:10 -37.67446 144.84646 381 ft 12 kts 81°
2026-05-04 12:10 -37.67434 144.84741 382 ft 8 kts 81°
2026-05-04 12:11 -37.67465 144.84783 381 ft 9 kts 184°
2026-05-04 12:11 -37.67517 144.84789 380 ft 2 kts 171°
2026-05-04 12:11 -37.67531 144.84791 379 ft 0 kts 172°